| time (UTC) | temp F | wind direction | speed MPH | gust MPH | rain 1hr in | rain 24hr in | rain mn in | humidity % | barometer mb |
| 20260503010325 | 53 | 238 | 0.0 | 0.0 | 0.00 | 0.00 | 0.00 | 56 | 1017.2 |
| 20260503005821 | 54 | 238 | 0.0 | 0.0 | 0.00 | 0.00 | 0.00 | 57 | 1017.0 |
| 20260503005319 | 54 | 238 | 0.0 | 0.0 | 0.00 | 0.00 | 0.00 | 57 | 1017.1 |
| 20260503004815 | 55 | 238 | 0.0 | 0.0 | 0.00 | 0.00 | 0.00 | 54 | 1017.1 |
| 20260503004313 | 56 | 238 | 0.0 | 0.0 | 0.00 | 0.00 | 0.00 | 52 | 1017.3 |
| 20260503003810 | 57 | 238 | 0.0 | 0.0 | 0.00 | 0.00 | 0.00 | 46 | 1017.0 |
| 20260503003307 | 57 | 241 | 0.0 | 0.0 | 0.00 | 0.00 | 0.00 | 44 | 1017.0 |
| 20260503002804 | 58 | 242 | 0.0 | 1.0 | 0.00 | 0.00 | 0.00 | 42 | 1017.0 |
| 20260503002301 | 58 | 248 | 1.0 | 1.0 | 0.00 | 0.00 | 0.00 | 40 | 1017.2 |
| 20260503001757 | 59 | 244 | 1.0 | 1.0 | 0.00 | 0.00 | 0.00 | 41 | 1017.2 |
| 20260503001253 | 59 | 256 | 2.0 | 2.0 | 0.00 | 0.00 | 0.00 | 39 | 1017.3 |
| 20260503000751 | 60 | 273 | 1.0 | 1.0 | 0.00 | 0.00 | 0.00 | 39 | 1017.1 |
| 20260503000248 | 60 | 246 | 1.0 | 2.0 | 0.00 | 0.00 | 0.00 | 38 | 1017.3 |
| 20260502235745 | 60 | 282 | 2.0 | 2.0 | 0.00 | 0.00 | 0.00 | 38 | 1017.2 |
| 20260502235243 | 61 | 254 | 2.0 | 2.0 | 0.00 | 0.00 | 0.00 | 38 | 1017.3 |
| 20260502234739 | 60 | 249 | 2.0 | 2.0 | 0.00 | 0.00 | 0.00 | 37 | 1017.5 |
| 20260502234236 | 60 | 249 | 3.0 | 3.0 | 0.00 | 0.00 | 0.00 | 36 | 1017.4 |
| 20260502233732 | 60 | 256 | 2.0 | 3.0 | 0.00 | 0.00 | 0.00 | 37 | 1017.5 |
| 20260502233229 | 60 | 290 | 1.0 | 2.0 | 0.00 | 0.00 | 0.00 | 38 | 1017.4 |
| 20260502232725 | 60 | 235 | 3.0 | 3.0 | 0.00 | 0.00 | 0.00 | 36 | 1017.5 |
| 20260502232222 | 61 | 255 | 4.0 | 6.0 | 0.00 | 0.00 | 0.00 | 36 | 1017.4 |
| 20260502231719 | 60 | 266 | 3.0 | 3.0 | 0.00 | 0.00 | 0.00 | 37 | 1017.7 |
| 20260502231217 | 61 | 283 | 3.0 | 3.0 | 0.00 | 0.00 | 0.00 | 38 | 1017.6 |
| 20260502230716 | 60 | 281 | 3.0 | 3.0 | 0.00 | 0.00 | 0.00 | 37 | 1017.6 |
| 20260502230213 | 60 | 290 | 2.0 | 2.0 | 0.00 | 0.00 | 0.00 | 36 | 1017.5 |
| 20260502225709 | 60 | 245 | 2.0 | 2.0 | 0.00 | 0.00 | 0.00 | 36 | 1017.7 |
| 20260502225206 | 60 | 271 | 3.0 | 5.0 | 0.00 | 0.00 | 0.00 | 35 | 1017.6 |
| 20260502224702 | 61 | 260 | 4.0 | 5.0 | 0.00 | 0.00 | 0.00 | 34 | 1017.8 |
| 20260502224159 | 61 | 272 | 1.0 | 2.0 | 0.00 | 0.00 | 0.00 | 35 | 1017.9 |
| 20260502223657 | 61 | 231 | 1.0 | 1.0 | 0.00 | 0.00 | 0.00 | 35 | 1017.7 |
| 20260502223155 | 61 | 247 | 3.0 | 3.0 | 0.00 | 0.00 | 0.00 | 35 | 1017.7 |
| 20260502222652 | 60 | 91 | 1.0 | 1.0 | 0.00 | 0.00 | 0.00 | 34 | 1017.7 |
| 20260502222149 | 60 | 275 | 1.0 | 1.0 | 0.00 | 0.00 | 0.00 | 40 | 1017.7 |
| 20260502221644 | 60 | 256 | 1.0 | 1.0 | 0.00 | 0.00 | 0.00 | 34 | 1017.6 |
| 20260502221142 | 60 | 226 | 1.0 | 1.0 | 0.00 | 0.00 | 0.00 | 37 | 1017.8 |
| 20260502220638 | 60 | 268 | 2.0 | 3.0 | 0.00 | 0.00 | 0.00 | 38 | 1017.7 |
| 20260502220134 | 61 | 280 | 5.0 | 6.0 | 0.00 | 0.00 | 0.00 | 34 | 1017.9 |
| 20260502215631 | 61 | 242 | 6.0 | 7.0 | 0.00 | 0.00 | 0.00 | 34 | 1017.8 |
| 20260502215128 | 61 | 243 | 4.0 | 6.0 | 0.00 | 0.00 | 0.00 | 35 | 1018.0 |
| 20260502214625 | 60 | 244 | 3.0 | 3.0 | 0.00 | 0.00 | 0.00 | 34 | 1018.0 |
| 20260502214122 | 61 | 325 | 4.0 | 6.0 | 0.00 | 0.00 | 0.00 | 34 | 1018.0 |
| 20260502213620 | 61 | 273 | 1.0 | 1.0 | 0.00 | 0.00 | 0.00 | 37 | 1017.9 |
| 20260502213117 | 60 | 220 | 1.0 | 1.0 | 0.00 | 0.00 | 0.00 | 34 | 1018.0 |
| 20260502212616 | 61 | 272 | 4.0 | 5.0 | 0.00 | 0.00 | 0.00 | 34 | 1018.0 |
| 20260502212114 | 61 | 303 | 4.0 | 5.0 | 0.00 | 0.00 | 0.00 | 33 | 1018.1 |
| 20260502211609 | 61 | 291 | 3.0 | 3.0 | 0.00 | 0.00 | 0.00 | 33 | 1018.4 |
| 20260502211106 | 61 | 212 | 4.0 | 6.0 | 0.00 | 0.00 | 0.00 | 35 | 1017.8 |
| 20260502210603 | 61 | 280 | 6.0 | 8.0 | 0.00 | 0.00 | 0.00 | 33 | 1018.2 |
| 20260502210100 | 58 | 257 | 2.0 | 3.0 | 0.00 | 0.00 | 0.00 | 41 | 1018.3 |
| 20260502205556 | 59 | 269 | 2.0 | 3.0 | 0.00 | 0.00 | 0.00 | 36 | 1018.4 |
| 20260502205053 | 60 | 182 | 2.0 | 3.0 | 0.00 | 0.00 | 0.00 | 34 | 1018.5 |
| 20260502204550 | 61 | 253 | 4.0 | 5.0 | 0.00 | 0.00 | 0.00 | 34 | 1018.5 |
| 20260502204048 | 58 | 115 | 1.0 | 1.0 | 0.00 | 0.00 | 0.00 | 36 | 1018.6 |
| 20260502203545 | 58 | 282 | 1.0 | 1.0 | 0.00 | 0.00 | 0.00 | 38 | 1018.7 |
| 20260502203042 | 59 | 357 | 2.0 | 2.0 | 0.00 | 0.00 | 0.00 | 37 | 1018.7 |
| 20260502202538 | 57 | 271 | 1.0 | 2.0 | 0.00 | 0.00 | 0.00 | 38 | 1018.7 |
| 20260502202036 | 59 | 229 | 6.0 | 7.0 | 0.00 | 0.00 | 0.00 | 36 | 1018.9 |
| 20260502201532 | 60 | 216 | 4.0 | 7.0 | 0.00 | 0.00 | 0.00 | 38 | 1019.1 |
| 20260502201029 | 61 | 302 | 4.0 | 5.0 | 0.00 | 0.00 | 0.00 | 34 | 1018.8 |
| 20260502200524 | 59 | 216 | 2.0 | 3.0 | 0.00 | 0.00 | 0.00 | 39 | 1018.8 |
| 20260502200022 | 60 | 261 | 2.0 | 5.0 | 0.00 | 0.00 | 0.00 | 34 | 1019.0 |
| 20260502195520 | 60 | 285 | 2.0 | 2.0 | 0.00 | 0.00 | 0.00 | 34 | 1019.1 |
| 20260502195016 | 60 | 8 | 4.0 | 6.0 | 0.00 | 0.00 | 0.00 | 35 | 1019.0 |
| 20260502194513 | 59 | 272 | 3.0 | 5.0 | 0.00 | 0.00 | 0.00 | 41 | 1019.1 |
| 20260502194009 | 60 | 239 | 3.0 | 3.0 | 0.00 | 0.00 | 0.00 | 34 | 1019.0 |
| 20260502193506 | 60 | 233 | 0.0 | 1.0 | 0.00 | 0.00 | 0.00 | 36 | 1019.1 |
| 20260502193002 | 58 | 256 | 1.0 | 1.0 | 0.00 | 0.00 | 0.00 | 39 | 1019.2 |
| 20260502192458 | 59 | 245 | 2.0 | 2.0 | 0.00 | 0.00 | 0.00 | 39 | 1019.2 |
| 20260502191955 | 59 | 281 | 4.0 | 5.0 | 0.00 | 0.00 | 0.00 | 39 | 1019.2 |
| 20260502191453 | 58 | 332 | 1.0 | 1.0 | 0.00 | 0.00 | 0.00 | 39 | 1019.3 |
| 20260502190951 | 58 | 263 | 1.0 | 1.0 | 0.00 | 0.00 | 0.00 | 39 | 1019.2 |
| 20260502190448 | 56 | 297 | 2.0 | 2.0 | 0.00 | 0.00 | 0.00 | 39 | 1019.5 |
| 20260502185944 | 57 | 62 | 3.0 | 3.0 | 0.00 | 0.00 | 0.00 | 37 | 1019.4 |
| 20260502185440 | 57 | 263 | 2.0 | 2.0 | 0.00 | 0.00 | 0.00 | 41 | 1019.4 |
| 20260502184937 | 57 | 19 | 3.0 | 3.0 | 0.00 | 0.00 | 0.00 | 40 | 1019.4 |
| 20260502184432 | 58 | 223 | 2.0 | 2.0 | 0.00 | 0.00 | 0.00 | 41 | 1019.5 |
| 20260502183928 | 57 | 156 | 1.0 | 1.0 | 0.00 | 0.00 | 0.00 | 38 | 1019.6 |
| 20260502183425 | 57 | 289 | 3.0 | 3.0 | 0.00 | 0.00 | 0.00 | 41 | 1019.7 |
| 20260502182920 | 57 | 25 | 5.0 | 7.0 | 0.00 | 0.00 | 0.00 | 39 | 1019.7 |
| 20260502182416 | 57 | 321 | 2.0 | 3.0 | 0.00 | 0.00 | 0.00 | 37 | 1019.5 |
| 20260502181912 | 57 | 339 | 3.0 | 5.0 | 0.00 | 0.00 | 0.00 | 35 | 1019.7 |
| 20260502181411 | 57 | 27 | 2.0 | 2.0 | 0.00 | 0.00 | 0.00 | 38 | 1019.6 |
| 20260502180909 | 59 | 175 | 4.0 | 6.0 | 0.00 | 0.00 | 0.00 | 36 | 1019.8 |
| 20260502180406 | 59 | 207 | 2.0 | 2.0 | 0.00 | 0.00 | 0.00 | 36 | 1019.7 |
| 20260502170324 | 55 | 348 | 0.0 | 1.0 | 0.00 | 0.00 | 0.00 | 38 | 1020.0 |
| 20260502164312 | 55 | 306 | 6.0 | 8.0 | 0.00 | 0.00 | 0.00 | 43 | 1020.3 |
| 20260502163808 | 55 | 289 | 0.0 | 1.0 | 0.00 | 0.00 | 0.00 | 41 | 1020.0 |
| 20260502163304 | 55 | 293 | 2.0 | 3.0 | 0.00 | 0.00 | 0.00 | 40 | 1020.0 |
| 20260502162802 | 54 | 320 | 1.0 | 1.0 | 0.00 | 0.00 | 0.00 | 40 | 1020.1 |
| 20260502162259 | 54 | 318 | 2.0 | 2.0 | 0.00 | 0.00 | 0.00 | 44 | 1020.4 |
| 20260502161755 | 55 | 263 | 1.0 | 1.0 | 0.00 | 0.00 | 0.00 | 46 | 1020.3 |
| 20260502161251 | 56 | 276 | 2.0 | 3.0 | 0.00 | 0.00 | 0.00 | 40 | 1020.4 |
| 20260502160749 | 55 | 13 | 2.0 | 5.0 | 0.00 | 0.00 | 0.00 | 44 | 1020.2 |
| 20260502160243 | 53 | 347 | 4.0 | 6.0 | 0.00 | 0.00 | 0.00 | 47 | 1020.2 |
| 20260502152212 | 55 | 136 | 3.0 | 5.0 | 0.00 | 0.00 | 0.00 | 47 | 1020.2 |
| 20260502151710 | 56 | 316 | 2.0 | 2.0 | 0.00 | 0.00 | 0.00 | 52 | 1020.1 |
| 20260502151207 | 56 | 196 | 3.0 | 3.0 | 0.00 | 0.00 | 0.00 | 57 | 1020.1 |
| 20260502150704 | 54 | 219 | 0.0 | 0.0 | 0.00 | 0.00 | 0.00 | 59 | 1020.0 |
| 20260502150200 | 54 | 27 | 3.0 | 3.0 | 0.00 | 0.00 | 0.00 | 61 | 1020.2 |
| 20260502140124 | 51 | 161 | 0.0 | 0.0 | 0.00 | 0.00 | 0.00 | 74 | 1020.1 |
| 20260502130549 | 48 | 95 | 1.0 | 1.0 | 0.00 | 0.00 | 0.00 | 83 | 1019.8 |
| 20260502123532 | 44 | 288 | 1.0 | 1.0 | 0.00 | 0.00 | 0.00 | 89 | 1019.6 |
| 20260502123028 | 44 | 29 | 1.0 | 1.0 | 0.00 | 0.00 | 0.00 | 90 | 1019.5 |
| 20260502122525 | 44 | 359 | 1.0 | 2.0 | 0.00 | 0.00 | 0.00 | 90 | 1019.5 |
| 20260502122022 | 44 | 339 | 3.0 | 3.0 | 0.00 | 0.00 | 0.00 | 90 | 1019.5 |
| 20260502121520 | 44 | 315 | 0.0 | 0.0 | 0.00 | 0.00 | 0.00 | 91 | 1019.2 |
| 20260502121017 | 43 | 40 | 3.0 | 3.0 | 0.00 | 0.00 | 0.00 | 91 | 1019.2 |
| 20260502120513 | 43 | 339 | 1.0 | 2.0 | 0.00 | 0.00 | 0.00 | 92 | 1019.2 |
| 20260502115508 | 43 | 297 | 0.0 | 1.0 | 0.00 | 0.00 | 0.00 | 92 | 1019.1 |
| 20260502115004 | 43 | 25 | 1.0 | 2.0 | 0.00 | 0.00 | 0.00 | 92 | 1019.0 |
| 20260502114501 | 43 | 333 | 2.0 | 2.0 | 0.00 | 0.00 | 0.00 | 92 | 1018.9 |
| 20260502113958 | 43 | 256 | 0.0 | 0.0 | 0.00 | 0.00 | 0.00 | 92 | 1019.0 |
| 20260502113455 | 43 | 263 | 0.0 | 1.0 | 0.00 | 0.00 | 0.00 | 91 | 1018.9 |
| 20260502112954 | 43 | 268 | 0.0 | 1.0 | 0.00 | 0.00 | 0.00 | 90 | 1018.8 |
| 20260502112451 | 43 | 287 | 1.0 | 1.0 | 0.00 | 0.00 | 0.00 | 90 | 1018.9 |
| 20260502111948 | 43 | 307 | 1.0 | 1.0 | 0.00 | 0.00 | 0.00 | 90 | 1018.8 |
| 20260502111445 | 43 | 282 | 0.0 | 0.0 | 0.00 | 0.00 | 0.00 | 90 | 1018.7 |
| 20260502110943 | 43 | 286 | 1.0 | 1.0 | 0.00 | 0.00 | 0.00 | 90 | 1018.8 |
| 20260502110440 | 43 | 296 | 1.0 | 1.0 | 0.00 | 0.00 | 0.00 | 90 | 1018.8 |
| 20260502105937 | 43 | 287 | 0.0 | 1.0 | 0.00 | 0.00 | 0.00 | 90 | 1018.8 |
| 20260502105435 | 43 | 325 | 2.0 | 2.0 | 0.00 | 0.00 | 0.00 | 90 | 1019.0 |
| 20260502104933 | 43 | 315 | 1.0 | 1.0 | 0.00 | 0.00 | 0.00 | 89 | 1018.7 |
| 20260502104429 | 43 | 290 | 0.0 | 1.0 | 0.00 | 0.00 | 0.00 | 88 | 1019.0 |
| 20260502103927 | 43 | 288 | 1.0 | 1.0 | 0.00 | 0.00 | 0.00 | 88 | 1018.7 |
| 20260502103425 | 43 | 313 | 1.0 | 1.0 | 0.00 | 0.00 | 0.00 | 88 | 1018.9 |
| 20260502102921 | 43 | 35 | 3.0 | 3.0 | 0.00 | 0.00 | 0.00 | 88 | 1018.8 |
| 20260502102418 | 43 | 317 | 0.0 | 0.0 | 0.00 | 0.00 | 0.00 | 88 | 1018.8 |
| 20260502101915 | 43 | 280 | 0.0 | 0.0 | 0.00 | 0.00 | 0.00 | 88 | 1018.6 |
| 20260502101414 | 43 | 316 | 1.0 | 1.0 | 0.00 | 0.00 | 0.00 | 89 | 1018.7 |
| 20260502100911 | 43 | 317 | 1.0 | 1.0 | 0.00 | 0.00 | 0.00 | 89 | 1018.7 |
| 20260502100411 | 43 | 341 | 2.0 | 2.0 | 0.00 | 0.00 | 0.00 | 89 | 1018.7 |
| 20260502091344 | 42 | 313 | 1.0 | 2.0 | 0.00 | 0.00 | 0.00 | 90 | 1018.4 |
| 20260502090842 | 42 | 288 | 1.0 | 2.0 | 0.00 | 0.00 | 0.00 | 91 | 1018.3 |
| 20260502090338 | 43 | 272 | 1.0 | 2.0 | 0.00 | 0.00 | 0.00 | 90 | 1018.2 |
| 20260502071233 | 42 | 297 | 0.0 | 0.0 | 0.00 | 0.00 | 0.00 | 88 | 1017.8 |
| 20260502070732 | 42 | 344 | 2.0 | 2.0 | 0.00 | 0.00 | 0.00 | 90 | 1017.9 |
| 20260502070229 | 42 | 305 | 0.0 | 1.0 | 0.00 | 0.00 | 0.00 | 91 | 1018.0 |
| 20260502065727 | 42 | 284 | 1.0 | 1.0 | 0.00 | 0.00 | 0.00 | 90 | 1018.0 |
| 20260502065225 | 42 | 282 | 0.0 | 0.0 | 0.00 | 0.00 | 0.00 | 88 | 1018.0 |
| 20260502064723 | 42 | 283 | 0.0 | 1.0 | 0.00 | 0.00 | 0.00 | 88 | 1018.2 |
| 20260502064221 | 42 | 289 | 0.0 | 0.0 | 0.00 | 0.00 | 0.00 | 88 | 1018.0 |
| 20260502063718 | 42 | 288 | 0.0 | 0.0 | 0.00 | 0.00 | 0.00 | 87 | 1018.3 |
| 20260502063216 | 42 | 288 | 0.0 | 0.0 | 0.00 | 0.00 | 0.00 | 87 | 1018.1 |
| 20260502062712 | 42 | 288 | 0.0 | 0.0 | 0.00 | 0.00 | 0.00 | 87 | 1018.0 |
| 20260502062210 | 42 | 290 | 0.0 | 0.0 | 0.00 | 0.00 | 0.00 | 87 | 1018.3 |
| 20260502061709 | 42 | 288 | 0.0 | 0.0 | 0.00 | 0.00 | 0.00 | 88 | 1018.0 |
| 20260502061205 | 42 | 288 | 0.0 | 0.0 | 0.00 | 0.00 | 0.00 | 87 | 1018.3 |
| 20260502060700 | 43 | 288 | 0.0 | 0.0 | 0.00 | 0.00 | 0.00 | 86 | 1018.1 |
| 20260502060157 | 43 | 288 | 0.0 | 0.0 | 0.00 | 0.00 | 0.00 | 85 | 1018.3 |
| 20260502055655 | 43 | 289 | 0.0 | 1.0 | 0.00 | 0.00 | 0.00 | 85 | 1018.2 |
| 20260502055153 | 43 | 288 | 0.0 | 0.0 | 0.00 | 0.00 | 0.00 | 86 | 1018.2 |
| 20260502054652 | 43 | 296 | 1.0 | 1.0 | 0.00 | 0.00 | 0.00 | 87 | 1018.2 |
| 20260502054149 | 43 | 284 | 0.0 | 1.0 | 0.00 | 0.00 | 0.00 | 86 | 1018.0 |
| 20260502053646 | 44 | 284 | 1.0 | 1.0 | 0.00 | 0.00 | 0.00 | 85 | 1018.1 |
| 20260502053143 | 44 | 284 | 0.0 | 0.0 | 0.00 | 0.00 | 0.00 | 84 | 1018.2 |
| 20260502052641 | 43 | 284 | 0.0 | 0.0 | 0.00 | 0.00 | 0.00 | 84 | 1018.0 |
| 20260502052139 | 43 | 284 | 0.0 | 0.0 | 0.00 | 0.00 | 0.00 | 84 | 1018.2 |
| 20260502051637 | 43 | 284 | 0.0 | 0.0 | 0.00 | 0.00 | 0.00 | 85 | 1018.4 |
| 20260502051135 | 44 | 290 | 0.0 | 1.0 | 0.00 | 0.00 | 0.00 | 85 | 1018.4 |
| 20260502050631 | 44 | 308 | 1.0 | 1.0 | 0.00 | 0.00 | 0.00 | 85 | 1018.3 |
| 20260502050127 | 44 | 283 | 0.0 | 0.0 | 0.00 | 0.00 | 0.00 | 84 | 1018.4 |
| 20260502045624 | 44 | 283 | 0.0 | 0.0 | 0.00 | 0.00 | 0.00 | 84 | 1018.4 |
| 20260502045121 | 44 | 283 | 0.0 | 0.0 | 0.00 | 0.00 | 0.00 | 85 | 1018.4 |
| 20260502044617 | 44 | 283 | 0.0 | 0.0 | 0.00 | 0.00 | 0.00 | 85 | 1018.2 |
| 20260502044114 | 43 | 283 | 0.0 | 0.0 | 0.00 | 0.00 | 0.00 | 86 | 1018.1 |
| 20260502043612 | 44 | 283 | 0.0 | 0.0 | 0.00 | 0.00 | 0.00 | 87 | 1018.3 |
| 20260502043108 | 44 | 283 | 0.0 | 0.0 | 0.00 | 0.00 | 0.00 | 86 | 1018.2 |
| 20260502042603 | 44 | 283 | 0.0 | 0.0 | 0.00 | 0.00 | 0.00 | 85 | 1018.3 |
| 20260502042101 | 44 | 283 | 0.0 | 0.0 | 0.00 | 0.00 | 0.00 | 83 | 1018.4 |
| 20260502041558 | 44 | 292 | 0.0 | 0.0 | 0.00 | 0.00 | 0.00 | 83 | 1018.2 |
| 20260502041055 | 44 | 296 | 0.0 | 0.0 | 0.00 | 0.00 | 0.00 | 85 | 1018.3 |
| 20260502040551 | 45 | 327 | 1.0 | 1.0 | 0.00 | 0.00 | 0.00 | 86 | 1018.0 |
| 20260502040049 | 44 | 324 | 1.0 | 1.0 | 0.00 | 0.00 | 0.00 | 86 | 1018.3 |
| 20260502035544 | 44 | 305 | 1.0 | 2.0 | 0.00 | 0.00 | 0.00 | 85 | 1018.1 |
| 20260502035042 | 45 | 300 | 0.0 | 0.0 | 0.00 | 0.00 | 0.00 | 84 | 1018.2 |
| 20260502034540 | 45 | 300 | 1.0 | 1.0 | 0.00 | 0.00 | 0.00 | 84 | 1018.0 |
| 20260502034038 | 45 | 301 | 0.0 | 0.0 | 0.00 | 0.00 | 0.00 | 84 | 1018.2 |
| 20260502033536 | 45 | 286 | 0.0 | 0.0 | 0.00 | 0.00 | 0.00 | 83 | 1018.2 |
| 20260502033033 | 45 | 285 | 0.0 | 0.0 | 0.00 | 0.00 | 0.00 | 80 | 1018.5 |
| 20260502032529 | 46 | 292 | 1.0 | 1.0 | 0.00 | 0.00 | 0.00 | 80 | 1018.3 |
| 20260502032026 | 46 | 297 | 1.0 | 1.0 | 0.00 | 0.00 | 0.00 | 78 | 1018.0 |
| 20260502031524 | 47 | 308 | 1.0 | 1.0 | 0.00 | 0.00 | 0.00 | 77 | 1018.1 |
| 20260502031021 | 47 | 313 | 1.0 | 1.0 | 0.00 | 0.00 | 0.00 | 79 | 1018.1 |
| 20260502030520 | 47 | 302 | 0.0 | 0.0 | 0.00 | 0.00 | 0.00 | 76 | 1018.1 |
| 20260502030018 | 47 | 302 | 1.0 | 1.0 | 0.00 | 0.00 | 0.00 | 76 | 1018.2 |
| 20260502025515 | 47 | 302 | 1.0 | 1.0 | 0.00 | 0.00 | 0.00 | 75 | 1018.0 |
| 20260502025013 | 47 | 300 | 1.0 | 1.0 | 0.00 | 0.00 | 0.00 | 76 | 1018.0 |
| 20260502024510 | 47 | 299 | 0.0 | 0.0 | 0.00 | 0.00 | 0.00 | 76 | 1017.7 |
| 20260502024008 | 47 | 307 | 0.0 | 1.0 | 0.00 | 0.00 | 0.00 | 78 | 1017.7 |
| 20260502023505 | 47 | 323 | 1.0 | 1.0 | 0.00 | 0.00 | 0.00 | 80 | 1017.8 |
| 20260502023002 | 47 | 295 | 0.0 | 0.0 | 0.00 | 0.00 | 0.00 | 75 | 1017.5 |
| 20260502022459 | 47 | 294 | 0.0 | 0.0 | 0.00 | 0.00 | 0.00 | 75 | 1017.3 |
| 20260502021956 | 47 | 295 | 0.0 | 0.0 | 0.00 | 0.00 | 0.00 | 76 | 1017.5 |
| 20260502021454 | 47 | 296 | 0.0 | 0.0 | 0.00 | 0.00 | 0.00 | 74 | 1017.5 |
| 20260502020950 | 48 | 303 | 1.0 | 1.0 | 0.00 | 0.00 | 0.00 | 73 | 1017.2 |
| 20260502020449 | 48 | 316 | 1.0 | 1.0 | 0.00 | 0.00 | 0.00 | 73 | 1017.3 |
| 20260502015945 | 48 | 302 | 1.0 | 1.0 | 0.00 | 0.00 | 0.00 | 73 | 1017.1 |
| 20260502015443 | 48 | 296 | 0.0 | 0.0 | 0.00 | 0.00 | 0.00 | 72 | 1017.1 |
| 20260502014939 | 49 | 296 | 0.0 | 0.0 | 0.00 | 0.00 | 0.00 | 72 | 1017.2 |
| 20260502014436 | 49 | 309 | 0.0 | 1.0 | 0.00 | 0.00 | 0.00 | 71 | 1017.0 |
| 20260502013933 | 49 | 309 | 1.0 | 1.0 | 0.00 | 0.00 | 0.00 | 69 | 1016.7 |
| 20260502013428 | 50 | 318 | 1.0 | 1.0 | 0.00 | 0.00 | 0.00 | 70 | 1016.6 |
| 20260502012925 | 50 | 315 | 1.0 | 1.0 | 0.00 | 0.00 | 0.00 | 69 | 1016.5 |
| 20260502012423 | 51 | 343 | 1.0 | 1.0 | 0.00 | 0.00 | 0.00 | 68 | 1016.6 |
| 20260502011920 | 51 | 352 | 1.0 | 2.0 | 0.00 | 0.00 | 0.00 | 68 | 1016.6 |
| 20260502011416 | 51 | 348 | 2.0 | 2.0 | 0.00 | 0.00 | 0.00 | 66 | 1016.5 |
| 20260502010913 | 51 | 343 | 1.0 | 1.0 | 0.00 | 0.00 | 0.00 | 65 | 1016.1 |